Location: SE Lincoln, NE
(40.7805°N, 96.6275°W)
Time: 01:07:26
(UTC-05:00)

ISS - Visible Passes

Search period start: 22 September 2021 00:00
Search period end: 02 October 2021 00:00
Orbit: 419 x 423 km, 51.6° (Epoch: 21 September)

Date Brightness Start Highest point End Pass type
(mag) Time Alt. Az. Time Alt. Az. Time Alt. Az.
22 Sep -1.6 20:07:52 10° WNW 20:10:36 22° NNW 20:13:19 10° NNE visible
22 Sep -0.8 21:46:42 10° NNW 21:47:46 13° NNW 21:47:46 13° NNW visible
23 Sep -1.1 20:59:25 10° NW 21:01:13 14° N 21:02:38 11° NNE visible
24 Sep -1.1 20:12:01 10° NW 20:14:03 15° N 20:16:06 10° NNE visible
24 Sep -0.6 21:49:58 10° NNW 21:50:28 12° NNW 21:50:28 12° NNW visible
25 Sep -1.2 21:03:02 10° NNW 21:04:47 13° N 21:05:18 13° NNE visible
26 Sep -1.2 20:15:56 10° NNW 20:17:37 13° N 20:19:17 10° NNE visible
26 Sep -0.5 21:52:45 10° NNW 21:53:06 12° NNW 21:53:06 12° NNW visible
27 Sep -1.5 21:05:57 10° NNW 21:07:56 17° N 21:07:56 17° N visible
28 Sep -1.4 20:19:07 10° NNW 20:21:09 15° N 20:22:46 11° NE visible
28 Sep -0.4 21:55:28 10° NW 21:55:45 12° NW 21:55:45 12° NW visible
29 Sep -1.8 21:08:39 10° NW 21:10:37 24° N 21:10:37 24° N visible
30 Sep -2.1 20:21:51 10° NNW 20:24:34 22° NNE 20:25:31 19° NE visible
30 Sep -0.2 21:58:20 10° WNW 21:58:30 11° WNW 21:58:30 11° WNW visible
01 Oct -1.7 19:35:04 10° NNW 19:37:27 18° NNE 19:39:49 10° ENE visible
01 Oct -2.2 21:11:25 10° NW 21:13:28 33° NW 21:13:28 33° NW visible
